Weather History for CYYJ - December, 2011

Change the Weather History Date:

Friday, December 16, 2011

  Actual Average Record
Temperature  
Mean Temperature 42 °F -  
Max Temperature 46 °F 44 °F 53 °F (1999)
Min Temperature 39 °F 33 °F 17 °F (2008)
Degree Days  
Heating Degree Days 22    
Moisture  
Dew Point 42 °F    
Average Humidity 92    
Maximum Humidity 100    
Minimum Humidity 83    
Precipitation  
Precipitation 0.04 in 0.19 in - ()
Sea Level Pressure  
Sea Level Pressure 30.44 in    
Wind  
Wind Speed 3 mph ()    
Max Wind Speed 10 mph    
Max Gust Speed -    
Visibility 8.8 miles    
Events Rain    
Averages and records for this station are not official NWS values.
T = Trace of Precipitation, MM = Missing Value Source: Averaged Metar Reports

Daily Weather History Graph

Daily Weather History Graph

Search for Another Location

Airport or City:

Trip Planner

Search our weather history database for the weather conditions in past years. The results will help you decide how hot, cold, wet, or windy it might be!

Date:

Astronomy

Dec. 16, 2011 Rise Set
Actual Time 8:00 AM PST 4:18 PM PST
Civil Twilight 7:23 AM PST 4:55 PM PST
Nautical Twilight 6:43 AM PST 5:35 PM PST
Astronomical Twilight 6:04 AM PST 6:13 PM PST
Moon 11:28 PM PST (12/16) 11:21 AM PST (12/16)
Length of Visible Light 9h 32m
Length of Day
8h 18m
Waning Gibbous, 63% of the Moon is Illuminated
Dec 16
Waning Gibbous
Dec 17
Last Quarter
Dec 24
New
Dec 31
First Quarter
Jan 8
Full

Hourly Weather History & Observations

Time (PST) Temp. Windchill Dew Point Humidity Pressure Visibility Wind Dir Wind Speed Gust Speed Precip Events Conditions
12:00 AM 41.0 °F - 39.2 °F 93% 30.45 in 6.0 mi Calm Calm - N/A   Overcast
12:13 AM 41.0 °F - - N/A% - 6.0 mi Calm Calm - N/A   Overcast
12:43 AM 41.0 °F - - N/A% - 6.0 mi WNW 2.3 mph - N/A   Overcast
1:00 AM 41.0 °F 39.0 °F 39.2 °F 93% 30.46 in 5.0 mi NW 3.5 mph - N/A   Light Drizzle
1:14 AM 41.0 °F 39.0 °F - N/A% - 5.0 mi NW 3.5 mph - N/A Rain Light Rain
1:29 AM 41.0 °F 39.0 °F - N/A% - 4.0 mi West 3.5 mph - N/A Rain Light Rain
2:00 AM 41.0 °F - 41.0 °F 100% 30.46 in 3.0 mi Calm Calm - N/A Rain Light Rain
2:34 AM 41.0 °F - - N/A% - 3.0 mi West 2.3 mph - N/A Rain Light Rain
3:00 AM 41.0 °F 39.0 °F 41.0 °F 100% 30.47 in 3.0 mi WNW 3.5 mph - N/A Rain Light Rain
3:35 AM 41.0 °F 39.0 °F - N/A% - 3.0 mi WNW 3.5 mph - N/A   Overcast
4:00 AM 41 °F - 41 °F 98% 30.46 in 3 mi WNW 4.6 mph - - Rain Light Rain
4:00 AM 41.0 °F 39.0 °F 41.0 °F 100% 30.46 in 3.0 mi WNW 3.5 mph - N/A   Overcast
5:00 AM 41.0 °F - 41.0 °F 100% 30.46 in 4.0 mi Calm Calm - N/A   Overcast
5:13 AM 41.0 °F - - N/A% - 5.0 mi NNW 2.3 mph - N/A   Overcast
6:00 AM 41.0 °F - 41.0 °F 100% 30.46 in 5.0 mi Calm Calm - N/A   Overcast
6:26 AM 41.0 °F - - N/A% - 5.0 mi West 2.3 mph - N/A   Overcast
6:44 AM 41.0 °F - - N/A% - 5.0 mi East 2.3 mph - N/A   Overcast
7:00 AM 41.0 °F 39.0 °F 41.0 °F 100% 30.47 in 5.0 mi NW 3.5 mph - N/A   Overcast
7:24 AM 42.8 °F - - N/A% - 5.0 mi Calm Calm - N/A Rain Light Rain
7:42 AM 41.0 °F - - N/A% - 5.0 mi Calm Calm - N/A   Overcast
8:00 AM 42.8 °F 40.1 °F 42.8 °F 100% 30.45 in 5.0 mi SE 4.6 mph - N/A   Overcast
8:10 AM 44.6 °F 40.7 °F - N/A% - 6.0 mi ESE 6.9 mph - N/A   Mostly Cloudy
9:00 AM 44.6 °F 39.7 °F 42.8 °F 93% 30.45 in 10.0 mi SE 9.2 mph - N/A   Mostly Cloudy
10:00 AM 45 °F - 43 °F 92% 30.47 in 10 mi SSE 8.1 mph - -   Partly Cloudy
11:00 AM 46.4 °F 41.5 °F 42.8 °F 87% 30.47 in 20.0 mi SE 10.4 mph - N/A   Mostly Cloudy
12:00 PM 46.4 °F 42.9 °F 44.6 °F 93% 30.46 in 20.0 mi SE 6.9 mph - N/A   Mostly Cloudy
1:00 PM 46.4 °F 41.9 °F 42.8 °F 87% 30.43 in 15.0 mi SE 9.2 mph - N/A   Overcast
2:00 PM 46.4 °F 42.9 °F 44.6 °F 93% 30.43 in 10.0 mi SE 6.9 mph - N/A   Overcast
3:00 PM 46.4 °F 45.2 °F 44.6 °F 93% 30.43 in 15.0 mi SE 3.5 mph - N/A   Overcast
4:00 PM 46 °F - 44 °F 88% 30.43 in 19 mi SSE 5.8 mph - -   Overcast
4:00 PM 46.4 °F 43.5 °F 42.8 °F 87% 30.43 in 20.0 mi SSE 5.8 mph - N/A   Overcast
5:00 PM 46.4 °F 42.9 °F 42.8 °F 87% 30.42 in 20.0 mi ESE 6.9 mph - N/A   Overcast
6:00 PM 46.4 °F 43.5 °F 42.8 °F 87% 30.42 in 20.0 mi SE 5.8 mph - N/A   Overcast
7:00 PM 46.4 °F 43.5 °F 42.8 °F 87% 30.42 in 20.0 mi SE 5.8 mph - N/A   Overcast
8:00 PM 46.4 °F 44.3 °F 42.8 °F 87% 30.41 in 30.0 mi ESE 4.6 mph - N/A   Mostly Cloudy
9:00 PM 46.4 °F - 42.8 °F 87% 30.42 in 30.0 mi SE 2.3 mph - N/A   Overcast
10:00 PM 46 °F - 42 °F 83% 30.41 in 28 mi Calm Calm - -   Overcast
10:00 PM 46.4 °F - 42.8 °F 87% 30.41 in 30.0 mi Calm Calm - N/A   Overcast
11:00 PM 46.4 °F 45.2 °F 42.8 °F 87% 30.40 in 30.0 mi ESE 3.5 mph - N/A   Overcast